Flag for Finland Weather past 2 weeks in Tampere, Finland

Now
28 °F

Partly sunny.


Feels Like: 19 °F
Forecast: 29 / 35 °F
Wind: 10 mph from Southeast

Location: Tampere / Pirkkala

Current Time: Oct 23, 2014 at 4:30:30 PM

Latest Report: Oct 23, 2014 at 3:50 PM


Visibility: N/A

Pressure: 30.51 "Hg

Humidity: 69%

Dew point: 19 °F

Location of TampereLocation

Historic Weather in Tampere — Graph

°F

Tampere temperature yesterday

Maximum temperature yesterday: 30 °F (at 3:20 PM)
Minimum temperature yesterday: 21 °F (at 11:50 PM)
Average temperature yesterday: 26 °F

Past Weeks' High & Low Weather Summary

 TemperatureHumidityPressure
High55 °F (Oct 10, 3:20 PM)100% (Oct 8, 3:20 PM)30.54 "Hg (Oct 8, 3:20 PM)
Low19 °F (Oct 17, 6:50 AM)47% (Oct 22, 3:20 PM)29.33 "Hg (Oct 20, 7:50 AM)
Average39 °F89%29.93 "Hg
* Reported Oct 8 3:20 PM — Oct 23 3:20 PM, Tampere, Weather by CustomWeather, © 2014

Note: Actual official high and low records may vary slightly from our data, if they occured in-between our weather recording intervals... More about our weather records

Advertising

Tampere weather history for previous 24 hours

 ConditionsComfort  
Time TempWeatherWind HumidityBarometerVisibility
3:20 PM
Oct 23
28 °FPartly sunny.13 mph69%30.51 "HgN/A
2:50 PM28 °FPartly sunny.9 mph69%30.54 "HgN/A
2:20 PM27 °FPartly sunny.7 mph74%30.54 "HgN/A
1:50 PM27 °FPartly sunny.10 mph69%30.54 "HgN/A
1:20 PM27 °FPartly sunny.8 mph74%30.54 "HgN/A
12:50 PM25 °FPartly sunny.10 mph74%30.54 "HgN/A
12:20 PM25 °FPartly sunny.7 mph74%30.54 "HgN/A
11:50 AM25 °FPartly sunny.9 mph74%30.51 "HgN/A
11:20 AM23 °FPartly sunny.8 mph80%30.51 "HgN/A
10:50 AM23 °FBroken clouds.8 mph74%30.51 "HgN/A
10:20 AM23 °FBroken clouds.10 mph80%30.51 "HgN/A
9:50 AM21 °FSunny.7 mph86%30.51 "Hg10 mi
9:20 AM21 °FClear.6 mph80%30.51 "Hg10 mi
8:50 AM21 °FClear.8 mph80%30.48 "Hg10 mi
8:20 AM21 °FClear.9 mph80%30.48 "Hg10 mi
7:50 AM21 °FClear.8 mph80%30.48 "Hg10 mi
7:20 AM21 °FClear.7 mph80%30.48 "Hg10 mi
6:50 AM21 °FClear.8 mph80%30.48 "Hg10 mi
6:20 AM21 °FClear.6 mph80%30.48 "Hg10 mi
5:50 AM21 °FClear.7 mph80%30.45 "Hg10 mi
5:20 AM21 °FClear.6 mph80%30.45 "Hg10 mi
4:50 AM21 °FClear.7 mph80%30.45 "Hg10 mi
4:20 AM21 °FClear.7 mph80%30.45 "Hg10 mi
3:50 AM21 °FClear.6 mph80%30.45 "Hg10 mi
3:20 AM19 °FPassing clouds.3 mph86%30.48 "HgN/A
2:50 AM21 °FPassing clouds.5 mph80%30.45 "HgN/A
2:20 AM23 °FPassing clouds.5 mph74%30.45 "HgN/A
1:50 AM19 °FPassing clouds.5 mph86%30.45 "HgN/A
1:20 AM19 °FPassing clouds.6 mph86%30.42 "HgN/A
12:50 AM19 °FClear.2 mph86%30.42 "Hg10 mi
12:20 AM19 °FClear.5 mph86%30.42 "Hg10 mi
11:50 PM
Oct 22
21 °FClear.5 mph80%30.39 "Hg10 mi
11:20 PM23 °FClear.3 mph74%30.39 "Hg10 mi
10:50 PM25 °FClear.7 mph69%30.36 "Hg10 mi
10:20 PM23 °FClear.9 mph74%30.36 "Hg10 mi
9:50 PM23 °FClear.8 mph74%30.36 "Hg10 mi
9:20 PM23 °FClear.9 mph68%30.36 "Hg10 mi
8:50 PM25 °FClear.9 mph63%30.36 "Hg10 mi
8:20 PM23 °FClear.8 mph68%30.33 "Hg10 mi
7:50 PM23 °FClear.8 mph63%30.33 "Hg10 mi
7:20 PM25 °FClear.9 mph63%30.33 "Hg10 mi
6:50 PM23 °FSunny.7 mph68%30.33 "Hg10 mi
6:20 PM23 °FSunny.6 mph68%30.33 "Hg10 mi
5:20 PM27 °FSunny.9 mph59%30.30 "Hg10 mi
4:50 PM28 °FPassing clouds.10 mph55%30.30 "HgN/A
4:20 PM28 °FSunny.12 mph55%30.30 "Hg10 mi
Weather by CustomWeather, © 2014

See weather overviewHow to use our weather pages